GW6055 Weather Reports


Display with metric or nautical units.
time (UTC)temp
F
wind
direction
speed
MPH
gust
MPH
rain 1hr
in
rain 24hr
in
rain mn
in
humidity
%
barometer
mb
20260505194051 77 162 5.0 13.0 0.00 0.00 0.00 42 1013.4
20260505193549 76 271 4.0 8.0 0.00 0.00 0.00 43 1013.3
20260505193046 76 272 4.0 7.0 0.00 0.00 0.00 43 1013.4
20260505192545 75 195 5.0 8.0 0.00 0.00 0.00 42 1013.7
20260505192042 75 65 2.0 11.0 0.00 0.00 0.00 42 1013.6
20260505191540 75 236 9.0 14.0 0.00 0.00 0.00 43 1013.9
20260505191038 77 241 10.0 13.0 0.00 0.00 0.00 43 1013.8
20260505190537 76 195 6.0 9.0 0.00 0.00 0.00 46 1013.7
20260505190034 76 214 2.0 6.0 0.00 0.00 0.00 41 1013.7
20260505185531 74 204 1.0 8.0 0.00 0.00 0.00 44 1013.9
20260505185027 75 237 4.0 8.0 0.00 0.00 0.00 43 1014.1
20260505184524 75 252 2.0 9.0 0.00 0.00 0.00 43 1014.3
20260505184021 75 165 8.0 9.0 0.00 0.00 0.00 43 1014.2
20260505183518 75 75 2.0 8.0 0.00 0.00 0.00 44 1014.6
20260505183015 76 125 7.0 17.0 0.00 0.00 0.00 43 1014.5
20260505182512 75 207 3.0 9.0 0.00 0.00 0.00 45 1014.8
20260505182008 75 196 1.0 7.0 0.00 0.00 0.00 45 1014.8
20260505181505 74 158 4.0 10.0 0.00 0.00 0.00 44 1014.8
20260505181002 75 231 9.0 15.0 0.00 0.00 0.00 43 1015.1
20260505180458 74 281 3.0 14.0 0.00 0.00 0.00 44 1015.0
20260505175955 74 299 9.0 10.0 0.00 0.00 0.00 44 1015.1
20260505175451 75 253 7.0 14.0 0.00 0.00 0.00 45 1015.3
20260505174948 75 222 6.0 9.0 0.00 0.00 0.00 47 1015.3
20260505174445 74 115 2.0 6.0 0.00 0.00 0.00 46 1015.3
20260505173941 73 143 2.0 6.0 0.00 0.00 0.00 47 1015.3
20260505173438 74 125 2.0 9.0 0.00 0.00 0.00 45 1015.4
20260505172935 73 139 1.0 6.0 0.00 0.00 0.00 48 1015.5
20260505172433 74 204 1.0 8.0 0.00 0.00 0.00 48 1015.6
20260505171932 74 217 9.0 11.0 0.00 0.00 0.00 46 1015.8
20260505171430 74 200 6.0 7.0 0.00 0.00 0.00 47 1016.0
20260505170926 73 216 5.0 9.0 0.00 0.00 0.00 49 1016.1
20260505170422 73 242 3.0 10.0 0.00 0.00 0.00 49 1016.1
20260505165918 73 266 2.0 9.0 0.00 0.00 0.00 49 1015.9
20260505165414 73 236 6.0 11.0 0.00 0.00 0.00 51 1016.0
20260505164909 73 134 2.0 6.0 0.00 0.00 0.00 51 1016.1
20260505164407 73 253 5.0 9.0 0.00 0.00 0.00 52 1016.1
20260505163905 73 196 6.0 16.0 0.00 0.00 0.00 51 1016.0
20260505163403 73 211 2.0 4.0 0.00 0.00 0.00 53 1016.1
20260505162902 74 235 3.0 11.0 0.00 0.00 0.00 54 1016.1
20260505162357 74 224 1.0 3.0 0.00 0.00 0.00 57 1016.0
20260505161854 73 262 4.0 8.0 0.00 0.00 0.00 54 1016.2
20260505161351 73 228 3.0 6.0 0.00 0.00 0.00 53 1016.2
20260505160848 74 239 3.0 9.0 0.00 0.00 0.00 55 1016.2
20260505160347 73 129 2.0 3.0 0.00 0.00 0.00 55 1016.0
20260505153326 72 179 1.0 7.0 0.00 0.00 0.00 59 1016.0
20260505152823 73 260 2.0 2.0 0.00 0.00 0.00 55 1015.7
20260505152320 72 197 1.0 4.0 0.00 0.00 0.00 57 1016.0
20260505151819 71 262 4.0 6.0 0.00 0.00 0.00 57 1016.0
20260505151316 71 228 4.0 4.0 0.00 0.00 0.00 56 1016.0
20260505150813 71 183 1.0 4.0 0.00 0.00 0.00 57 1015.9
20260505150310 72 182 2.0 3.0 0.00 0.00 0.00 54 1015.9
20260505140235 69 147 2.0 3.0 0.00 0.00 0.00 56 1015.9
20260505130158 62 200 2.0 2.0 0.00 0.00 0.00 64 1016.0
20260505124648 64 146 0.0 2.0 0.00 0.00 0.00 62 1016.0
20260505124145 63 162 0.0 1.0 0.00 0.00 0.00 66 1015.8
20260505123641 63 153 0.0 0.0 0.00 0.00 0.00 67 1015.9
20260505123138 62 129 0.0 1.0 0.00 0.00 0.00 69 1015.9
20260505122634 61 134 0.0 0.0 0.00 0.00 0.00 70 1015.7
20260505122132 60 146 0.0 0.0 0.00 0.00 0.00 72 1015.9
20260505121628 60 152 0.0 1.0 0.00 0.00 0.00 72 1015.7
20260505121125 61 110 1.0 1.0 0.00 0.00 0.00 71 1015.6
20260505120621 59 142 0.0 0.0 0.00 0.00 0.00 73 1015.6
20260505120117 58 135 0.0 0.0 0.00 0.00 0.00 76 1015.5
20260505115612 55 146 0.0 0.0 0.00 0.00 0.00 80 1015.4
20260505115109 53 131 0.0 1.0 0.00 0.00 0.00 82 1015.3
20260505114606 53 121 1.0 1.0 0.00 0.00 0.00 82 1015.2
20260505114103 53 132 1.0 1.0 0.00 0.00 0.00 82 1015.3
20260505113559 52 164 0.0 1.0 0.00 0.00 0.00 81 1015.5
20260505113056 52 164 0.0 0.0 0.00 0.00 0.00 82 1015.2
20260505112552 51 212 1.0 1.0 0.00 0.00 0.00 84 1015.0
20260505112051 50 124 0.0 0.0 0.00 0.00 0.00 85 1014.8
20260505111549 49 155 0.0 1.0 0.00 0.00 0.00 86 1014.7
20260505111046 50 148 0.0 0.0 0.00 0.00 0.00 85 1014.5
20260505110542 49 149 0.0 0.0 0.00 0.00 0.00 85 1014.3
20260505102015 52 123 0.0 1.0 0.00 0.00 0.00 77 1014.4
20260505101513 53 153 0.0 0.0 0.00 0.00 0.00 77 1014.4
20260505101010 53 148 0.0 1.0 0.00 0.00 0.00 75 1014.4
20260505100507 53 156 0.0 0.0 0.00 0.00 0.00 73 1014.4
20260505100003 53 153 0.0 0.0 0.00 0.00 0.00 73 1014.6
20260505095459 53 161 0.0 0.0 0.00 0.00 0.00 73 1014.6
20260505094955 54 159 0.0 0.0 0.00 0.00 0.00 72 1014.5
20260505094453 54 151 0.0 0.0 0.00 0.00 0.00 71 1014.4
20260505093949 55 150 0.0 0.0 0.00 0.00 0.00 69 1014.3
20260505093445 56 145 0.0 0.0 0.00 0.00 0.00 67 1014.3
20260505092943 56 156 0.0 0.0 0.00 0.00 0.00 66 1014.4
20260505092440 57 148 0.0 0.0 0.00 0.00 0.00 65 1014.5
20260505091938 57 237 1.0 2.0 0.00 0.00 0.00 65 1014.4
20260505091435 56 179 1.0 2.0 0.00 0.00 0.00 66 1014.3
20260505090933 56 141 0.0 0.0 0.00 0.00 0.00 66 1014.4
20260505090431 57 326 0.0 0.0 0.00 0.00 0.00 66 1014.3
20260505085928 57 162 0.0 1.0 0.00 0.00 0.00 65 1014.4
20260505085426 57 167 0.0 0.0 0.00 0.00 0.00 64 1014.5
20260505084924 58 138 0.0 2.0 0.00 0.00 0.00 64 1014.5
20260505084422 58 156 0.0 0.0 0.00 0.00 0.00 64 1014.5
20260505083920 58 176 1.0 2.0 0.00 0.00 0.00 62 1014.4
20260505083417 58 202 1.0 1.0 0.00 0.00 0.00 63 1014.5
20260505082913 59 177 1.0 1.0 0.00 0.00 0.00 62 1014.5
20260505082409 59 158 0.0 2.0 0.00 0.00 0.00 61 1014.2
20260505081906 59 164 0.0 4.0 0.00 0.00 0.00 61 1014.5
20260505081402 58 290 1.0 2.0 0.00 0.00 0.00 63 1014.5
20260505080859 58 205 1.0 1.0 0.00 0.00 0.00 64 1014.3
20260505080355 58 136 0.0 0.0 0.00 0.00 0.00 64 1014.4
20260505075851 59 157 0.0 1.0 0.00 0.00 0.00 63 1014.4
20260505075348 58 153 0.0 1.0 0.00 0.00 0.00 63 1014.4
20260505074845 59 194 1.0 2.0 0.00 0.00 0.00 62 1014.4
20260505074342 58 181 1.0 1.0 0.00 0.00 0.00 63 1014.3
20260505073839 57 152 0.0 2.0 0.00 0.00 0.00 64 1014.4
20260505073337 58 148 0.0 0.0 0.00 0.00 0.00 64 1014.4
20260505072834 58 145 0.0 0.0 0.00 0.00 0.00 64 1014.5
20260505072330 58 218 0.0 1.0 0.00 0.00 0.00 63 1014.4
20260505071826 59 183 0.0 0.0 0.00 0.00 0.00 63 1014.4
20260505071323 59 140 0.0 0.0 0.00 0.00 0.00 63 1014.5
20260505070821 59 153 0.0 1.0 0.00 0.00 0.00 61 1014.3
20260505070318 60 168 0.0 1.0 0.00 0.00 0.00 61 1014.4
20260505065812 60 157 0.0 2.0 0.00 0.00 0.00 60 1014.4
20260505065309 61 217 1.0 2.0 0.00 0.00 0.00 60 1014.5
20260505064807 61 161 2.0 4.0 0.00 0.00 0.00 59 1014.6
20260505064304 61 132 0.0 2.0 0.00 0.00 0.00 59 1014.6
20260505063802 61 154 0.0 1.0 0.00 0.00 0.00 60 1014.5
20260505063258 61 199 1.0 1.0 0.00 0.00 0.00 59 1014.7
20260505062754 61 157 0.0 2.0 0.00 0.00 0.00 59 1014.6
20260505062252 61 150 1.0 2.0 0.00 0.00 0.00 60 1014.5
20260505061748 61 149 0.0 0.0 0.00 0.00 0.00 59 1014.6
20260505061246 62 188 1.0 3.0 0.00 0.00 0.00 58 1014.7
20260505060743 62 194 2.0 3.0 0.00 0.00 0.00 58 1014.6
20260505060241 62 273 2.0 3.0 0.00 0.00 0.00 58 1014.6
20260505055735 62 276 2.0 3.0 0.00 0.00 0.00 58 1014.6
20260505055232 62 163 1.0 2.0 0.00 0.00 0.00 58 1014.5
20260505054730 62 163 2.0 4.0 0.00 0.00 0.00 58 1014.5
20260505054227 62 324 1.0 2.0 0.00 0.00 0.00 59 1014.4
20260505053726 62 183 0.0 2.0 0.00 0.00 0.00 59 1014.5
20260505053221 63 227 2.0 3.0 0.00 0.00 0.00 59 1014.5
20260505052719 63 228 1.0 4.0 0.00 0.00 0.00 58 1014.3
20260505052216 62 244 2.0 2.0 0.00 0.00 0.00 59 1014.4
20260505051713 63 164 1.0 2.0 0.00 0.00 0.00 59 1014.4
20260505051211 63 210 1.0 4.0 0.00 0.00 0.00 58 1014.4
20260505050709 63 240 3.0 3.0 0.00 0.00 0.00 59 1014.3
20260505050207 63 171 0.0 3.0 0.00 0.00 0.00 59 1014.2
20260505041636 62 151 0.0 2.0 0.00 0.00 0.00 61 1014.5
20260505041134 61 157 0.0 0.0 0.00 0.00 0.00 63 1014.3
20260505040630 62 149 0.0 0.0 0.00 0.00 0.00 63 1014.3
20260505040128 62 143 0.0 0.0 0.00 0.00 0.00 62 1014.4
20260505035624 62 179 0.0 1.0 0.00 0.00 0.00 61 1014.3
20260505035120 62 149 0.0 0.0 0.00 0.00 0.00 62 1014.3
20260505034617 62 166 0.0 1.0 0.00 0.00 0.00 61 1014.2
20260505034114 63 149 0.0 1.0 0.00 0.00 0.00 60 1014.4
20260505033611 63 170 0.0 1.0 0.00 0.00 0.00 59 1014.2
20260505033110 63 193 1.0 2.0 0.00 0.00 0.00 59 1014.3
20260505032607 62 159 0.0 0.0 0.00 0.00 0.00 60 1014.4
20260505032103 62 160 0.0 0.0 0.00 0.00 0.00 59 1014.3
20260505031601 62 150 0.0 0.0 0.00 0.00 0.00 59 1014.3
20260505031056 62 140 0.0 0.0 0.00 0.00 0.00 58 1014.2
20260505030554 63 156 0.0 1.0 0.00 0.00 0.00 58 1014.4
20260505030049 63 153 0.0 0.0 0.00 0.00 0.00 57 1014.4
20260505025545 63 145 0.0 0.0 0.00 0.00 0.00 56 1014.4
20260505025045 63 140 0.0 0.0 0.00 0.00 0.00 57 1014.5
20260505024541 63 153 0.0 0.0 0.00 0.00 0.00 57 1014.4
20260505024038 64 149 0.0 1.0 0.00 0.00 0.00 56 1014.4
20260505023535 63 230 1.0 2.0 0.00 0.00 0.00 56 1014.6
20260505023033 63 160 0.0 0.0 0.00 0.00 0.00 57 1014.5
20260505022530 64 142 0.0 1.0 0.00 0.00 0.00 57 1014.5
20260505022027 64 156 0.0 0.0 0.00 0.00 0.00 55 1014.4
20260505021524 64 167 0.0 0.0 0.00 0.00 0.00 55 1014.6
20260505021021 64 205 1.0 1.0 0.00 0.00 0.00 55 1014.5
20260505020520 64 157 0.0 0.0 0.00 0.00 0.00 56 1014.4
20260505020018 64 148 0.0 0.0 0.00 0.00 0.00 55 1014.4
20260505015515 65 152 0.0 0.0 0.00 0.00 0.00 54 1014.4
20260505015012 65 199 1.0 2.0 0.00 0.00 0.00 53 1014.3
20260505014509 66 158 0.0 2.0 0.00 0.00 0.00 54 1014.3
20260505014006 66 189 1.0 1.0 0.00 0.00 0.00 54 1014.5
20260505013503 66 200 1.0 2.0 0.00 0.00 0.00 54 1014.4
20260505013000 66 170 0.0 1.0 0.00 0.00 0.00 54 1014.3
20260505012458 66 165 0.0 0.0 0.00 0.00 0.00 54 1014.4
20260505011955 66 127 1.0 2.0 0.00 0.00 0.00 53 1014.2
20260505011450 66 163 0.0 1.0 0.00 0.00 0.00 54 1014.3
20260505010947 66 147 0.0 1.0 0.00 0.00 0.00 54 1014.2
20260505010443 67 153 0.0 1.0 0.00 0.00 0.00 54 1014.3
20260505005939 68 105 0.0 1.0 0.00 0.00 0.00 53 1014.1
20260505005436 68 165 1.0 2.0 0.00 0.00 0.00 53 1014.1
20260505004934 68 100 0.0 2.0 0.00 0.00 0.00 52 1014.1
20260505004430 69 177 1.0 1.0 0.00 0.00 0.00 53 1013.9
20260505003927 69 96 0.0 2.0 0.00 0.00 0.00 54 1014.0
20260505003425 69 155 0.0 2.0 0.00 0.00 0.00 54 1013.8
20260505002921 70 135 0.0 3.0 0.00 0.00 0.00 53 1013.8
20260505002417 70 152 0.0 2.0 0.00 0.00 0.00 53 1013.7
20260505001916 70 159 1.0 1.0 0.00 0.00 0.00 53 1013.9
20260505001413 71 158 1.0 2.0 0.00 0.00 0.00 53 1013.7
20260505000910 71 164 1.0 2.0 0.00 0.00 0.00 52 1013.8
20260505000408 71 161 1.0 3.0 0.00 0.00 0.00 53 1013.6
20260504235904 72 250 3.0 4.0 0.00 0.00 0.00 52 1013.6
20260504235401 72 173 2.0 4.0 0.00 0.00 0.00 51 1013.6
20260504234857 73 162 1.0 2.0 0.00 0.00 0.00 50 1013.7
20260504234355 73 228 3.0 4.0 0.00 0.00 0.00 50 1013.7
20260504233852 74 170 0.0 3.0 0.00 0.00 0.00 50 1013.6
20260504233347 74 148 2.0 3.0 0.00 0.00 0.00 50 1013.6
20260504232844 74 348 1.0 6.0 0.00 0.00 0.00 50 1013.7
20260504232341 74 171 1.0 7.0 0.00 0.00 0.00 49 1013.7
20260504231838 74 118 2.0 7.0 0.00 0.00 0.00 50 1013.7
20260504231334 75 207 1.0 3.0 0.00 0.00 0.00 49 1013.4
20260504230831 75 201 2.0 4.0 0.00 0.00 0.00 49 1013.7
20260504230329 75 162 1.0 2.0 0.00 0.00 0.00 48 1013.4
20260504225827 76 315 2.0 8.0 0.00 0.00 0.00 48 1013.6
20260504225323 77 202 3.0 4.0 0.00 0.00 0.00 47 1013.7
20260504224821 76 205 1.0 6.0 0.00 0.00 0.00 47 1013.6
20260504224318 76 210 5.0 8.0 0.00 0.00 0.00 47 1013.7
20260504223814 77 208 2.0 4.0 0.00 0.00 0.00 47 1013.6
20260504223310 78 235 1.0 4.0 0.00 0.00 0.00 48 1013.4
20260504222807 77 179 1.0 4.0 0.00 0.00 0.00 48 1013.7
20260504222305 76 169 1.0 2.0 0.00 0.00 0.00 48 1013.6
20260504221802 76 258 2.0 6.0 0.00 0.00 0.00 47 1013.7
20260504221258 76 212 2.0 4.0 0.00 0.00 0.00 47 1013.7
20260504220755 76 189 2.0 6.0 0.00 0.00 0.00 48 1013.8
20260504220252 77 210 1.0 2.0 0.00 0.00 0.00 47 1013.9
20260504215749 76 73 0.0 4.0 0.00 0.00 0.00 47 1013.8
20260504215246 75 143 2.0 6.0 0.00 0.00 0.00 46 1013.7
20260504214741 75 249 4.0 6.0 0.00 0.00 0.00 49 1013.6
20260504214238 76 159 1.0 6.0 0.00 0.00 0.00 47 1013.7
20260504213735 76 215 2.0 6.0 0.00 0.00 0.00 49 1013.8
20260504213231 77 177 4.0 7.0 0.00 0.00 0.00 47 1013.7
20260504212729 78 192 4.0 6.0 0.00 0.00 0.00 45 1013.9
20260504212225 78 204 1.0 4.0 0.00 0.00 0.00 50 1014.0
20260504211723 79 95 1.0 2.0 0.00 0.00 0.00 46 1013.7
20260504211219 79 187 5.0 6.0 0.00 0.00 0.00 43 1013.9
20260504210716 78 71 1.0 4.0 0.00 0.00 0.00 45 1013.9
20260504210213 78 178 3.0 6.0 0.00 0.00 0.00 46 1013.8
20260504205710 79 180 2.0 3.0 0.00 0.00 0.00 47 1014.0
20260504205208 78 132 2.0 6.0 0.00 0.00 0.00 49 1014.0
20260504204706 78 215 5.0 9.0 0.00 0.00 0.00 45 1014.0
20260504204204 77 172 1.0 2.0 0.00 0.00 0.00 46 1014.0
20260504203703 78 233 3.0 7.0 0.00 0.00 0.00 46 1014.1
20260504203200 79 179 1.0 3.0 0.00 0.00 0.00 44 1014.1
20260504202700 78 163 1.0 4.0 0.00 0.00 0.00 47 1014.2
20260504202158 78 205 2.0 3.0 0.00 0.00 0.00 45 1014.1
20260504201654 77 250 3.0 3.0 0.00 0.00 0.00 48 1014.4
20260504201152 77 220 2.0 6.0 0.00 0.00 0.00 48 1014.4
20260504200649 77 181 1.0 3.0 0.00 0.00 0.00 48 1014.2
20260504200145 77 167 3.0 7.0 0.00 0.00 0.00 46 1014.4
20260504195641 77 197 5.0 7.0 0.00 0.00 0.00 45 1014.6
20260504195138 77 244 3.0 4.0 0.00 0.00 0.00 51 1014.5
20260504194635 78 231 2.0 4.0 0.00 0.00 0.00 50 1014.7